Flag for Norway Weather past 2 weeks in Rygge, Norway

Now
64 °F

Passing clouds.


Feels Like: 64 °F
Forecast: 52 / 66 °F
Wind: 8 mph from North

Location: Rygge

Current Time: Aug 27, 2014 at 1:11:06 PM

Latest Report: Aug 27, 2014 at 12:20 PM


Visibility: N/A

Pressure: 29.92 "Hg

Humidity: 43%

Dew point: 41 °F

Location of RyggeLocation

Historic Weather in Rygge — Graph

°F

Rygge temperature yesterday

Maximum temperature yesterday: 66 °F (at 2:20 PM)
Minimum temperature yesterday: 46 °F (at 5:50 AM)
Average temperature yesterday: 56 °F

Past Weeks' High & Low Weather Summary

 TemperatureHumidityPressure
High72 °F (Aug 15, 5:50 PM)100% (Aug 13, 6:20 AM)29.95 "Hg (Aug 13, 6:20 AM)
Low45 °F (Aug 24, 6:50 AM)46% (Aug 15, 5:20 PM)29.18 "Hg (Aug 18, 12:50 PM)
Average57 °F81%29.56 "Hg
* Reported Aug 12 11:20 AM — Aug 27 11:50 AM, Rygge, Weather by CustomWeather, © 2014

Note: Actual official high and low records may vary slightly from our data, if they occured in-between our weather recording intervals... More about our weather records

Advertising

Rygge weather history for previous 24 hours

 ConditionsComfort  
Time TempWeatherWind HumidityBarometerVisibility
11:50 AM
Aug 27
64 °FPassing clouds.7 mph49%29.92 "HgN/A
11:20 AM63 °FPassing clouds.10 mph49%29.95 "HgN/A
10:50 AM63 °FPassing clouds.9 mph52%29.95 "HgN/A
10:20 AM61 °FPassing clouds.9 mph52%29.95 "HgN/A
9:50 AM61 °FPassing clouds.8 mph55%29.95 "HgN/A
9:20 AM59 °FPassing clouds.7 mph59%29.95 "HgN/A
8:50 AM59 °FPassing clouds.5 mph63%29.92 "HgN/A
8:20 AM57 °FSunny.5 mph67%29.92 "Hg10 mi
7:50 AM55 °FSunny.6 mph72%29.92 "Hg10 mi
7:20 AM54 °FSunny.6 mph77%29.92 "Hg10 mi
6:50 AM52 °FClear.5 mph82%29.92 "Hg10 mi
6:20 AM52 °FClear.5 mph82%29.89 "Hg10 mi
5:50 AM52 °FCool.6 mph77%29.89 "HgN/A
5:20 AM52 °FCool.5 mph82%29.89 "HgN/A
4:50 AM52 °FCool.6 mph82%29.89 "HgN/A
4:20 AM50 °FCool.5 mph82%29.89 "HgN/A
3:50 AM50 °FCool.5 mph82%29.89 "HgN/A
3:20 AM52 °FCool.5 mph82%29.89 "HgN/A
2:50 AM54 °FCool.7 mph77%29.86 "HgN/A
2:20 AM52 °FCool.6 mph82%29.86 "HgN/A
1:50 AM54 °FCool.7 mph77%29.86 "HgN/A
1:20 AM55 °FCool.8 mph72%29.86 "HgN/A
12:50 AM55 °FCool.9 mph72%29.86 "HgN/A
12:20 AM54 °FCool.7 mph82%29.86 "HgN/A
11:50 PM
Aug 26
54 °FCool.5 mph82%29.83 "HgN/A
11:20 PM52 °FCool.2 mph88%29.83 "HgN/A
10:50 PM55 °FClear.5 mph72%29.83 "Hg10 mi
10:20 PM54 °FClear.2 mph77%29.83 "Hg10 mi
9:50 PM57 °FClear.3 mph72%29.83 "Hg10 mi
9:20 PM59 °FSunny.3 mph63%29.80 "Hg10 mi
8:50 PM59 °FSunny.3 mph68%29.80 "Hg10 mi
8:20 PM63 °FSunny.2 mph59%29.80 "Hg10 mi
7:50 PM64 °FSunny.3 mph52%29.77 "Hg10 mi
7:20 PM64 °FPassing clouds.5 mph52%29.77 "HgN/A
6:50 PM63 °FSunny.5 mph52%29.77 "Hg10 mi
6:20 PM64 °FSunny.7 mph49%29.77 "Hg10 mi
5:50 PM66 °FPassing clouds.9 mph46%29.77 "HgN/A
5:20 PM66 °FSunny.6 mph46%29.77 "Hg10 mi
4:50 PM63 °FSunny.2 mph59%29.77 "Hg10 mi
4:20 PM61 °FScattered clouds.5 mph68%29.77 "HgN/A
3:50 PM66 °FScattered showers. Scattered clouds.7 mph52%29.77 "HgN/A
3:20 PM64 °FScattered clouds.5 mph64%29.77 "HgN/A
2:50 PM59 °FScattered showers. Scattered clouds.12 mph72%29.80 "HgN/A
2:20 PM66 °FBroken clouds.7 mph56%29.77 "HgN/A
1:50 PM64 °FPartly sunny.8 mph60%29.77 "HgN/A
1:20 PM63 °FScattered clouds.7 mph64%29.77 "HgN/A
Weather by CustomWeather, © 2014

See weather overviewHow to use our weather pages